This is the latest recevied weather packets stored in our database for station/object KK7ISX. If no packets are shown the sender has not sent any weather packets the latest 10 day(s).
| Time | Temp. | Humidity | Pressure | Rain* | Wind** | Luminosity | Snow |
|---|---|---|---|---|---|---|---|
| 1777733070 | 13.89° C | 49% | 1017.3 hPa | 0 mm | - | 109 W/m² | - |
| 1777732766 | 13.89° C | 48% | 1017.4 hPa | 0 mm | - | 96 W/m² | - |
| 1777732463 | 13.89° C | 48% | 1017.4 hPa | 0 mm | - | 97 W/m² | - |
| 1777732161 | 13.89° C | 48% | 1017.1 hPa | 0 mm | - | 94 W/m² | - |
| 1777731858 | 13.33° C | 49% | 1017.2 hPa | 0 mm | - | 89 W/m² | - |
| 1777731555 | 12.78° C | 51% | 1017.2 hPa | 0 mm | - | 84 W/m² | - |
| 1777731253 | 12.78° C | 52% | 1017.2 hPa | 0 mm | - | 80 W/m² | - |
| 1777730950 | 12.22° C | 53% | 1017 hPa | 0 mm | - | 82 W/m² | - |
| 1777730648 | 12.22° C | 54% | 1017 hPa | 0 mm | - | 80 W/m² | - |
| 1777730344 | 11.67° C | 55% | 1017.2 hPa | 0 mm | - | 79 W/m² | - |
| 1777730040 | 11.67° C | 55% | 1016.9 hPa | 0 mm | - | 72 W/m² | - |
| 1777729736 | 11.67° C | 55% | 1017.1 hPa | 0 mm | - | 67 W/m² | - |
| 1777729434 | 11.11° C | 54% | 1017.2 hPa | 0 mm | - | 62 W/m² | - |
| 1777729130 | 11.11° C | 54% | 1016.8 hPa | 0 mm | - | 56 W/m² | - |
| 1777728827 | 11.11° C | 55% | 1017 hPa | 0 mm | - | 49 W/m² | - |
| 1777728524 | 11.11° C | 55% | 1017.1 hPa | 0 mm | - | 43 W/m² | - |
| 1777728221 | 11.11° C | 54% | 1016.9 hPa | 0 mm | - | 37 W/m² | - |
| 1777727918 | 11.11° C | 54% | 1017 hPa | 0 mm | - | 31 W/m² | - |
| 1777727615 | 11.11° C | 54% | 1017 hPa | 0 mm | - | 26 W/m² | - |
| 1777727312 | 11.11° C | 54% | 1016.9 hPa | 0 mm | - | 21 W/m² | - |
| 1777727010 | 10.56° C | 55% | 1016.6 hPa | 0 mm | - | 16 W/m² | - |
| 1777726706 | 10.56° C | 55% | 1016.8 hPa | 0 mm | - | 12 W/m² | - |
| 1777726404 | 10.56° C | 56% | 1016.6 hPa | 0 mm | - | 9 W/m² | - |
| 1777726100 | 10.56° C | 57% | 1016.8 hPa | 0 mm | - | 6 W/m² | - |
| 1777725797 | 10.56° C | 58% | 1016.5 hPa | 0 mm | - | 4 W/m² | - |
* Rain latest hour (hover to see other rain measurements)
** Current wind speed in m/s (hover to see current wind gust speed)